| time (UTC) | temp C | wind direction | speed KPH | gust KPH | rain 1hr cm | rain 24hr cm | rain mn cm | humidity % | barometer mb |
| 20260510152138 | 21 | 72 | 1.6 | 0.0 | 0.00 | 0.00 | 0.00 | 43 | 1004.9 |
| 20260510151641 | 22 | 29 | 1.6 | 0.0 | 0.00 | 0.00 | 0.00 | 41 | 1004.9 |
| 20260510151129 | 22 | 34 | 1.6 | 0.0 | 0.00 | 0.00 | 0.00 | 41 | 1004.7 |
| 20260510150632 | 23 | 15 | 0.0 | 0.0 | 0.00 | 0.00 | 0.00 | 43 | 1004.7 |
| 20260510150137 | 22 | 20 | 0.0 | 0.0 | 0.00 | 0.00 | 0.00 | 42 | 1004.7 |
| 20260510145643 | 22 | 27 | 0.0 | 0.0 | 0.00 | 0.00 | 0.00 | 41 | 1005.0 |
| 20260510145145 | 22 | 28 | 0.0 | 0.0 | 0.00 | 0.00 | 0.00 | 40 | 1005.0 |
| 20260510144649 | 22 | 45 | 0.0 | 0.0 | 0.00 | 0.00 | 0.00 | 44 | 1005.0 |
| 20260510144150 | 22 | 348 | 0.0 | 0.0 | 0.00 | 0.00 | 0.00 | 40 | 1004.8 |
| 20260510143636 | 22 | 360 | 1.6 | 0.0 | 0.00 | 0.00 | 0.00 | 41 | 1004.8 |
| 20260510143143 | 22 | 343 | 1.6 | 0.0 | 0.00 | 0.00 | 0.00 | 39 | 1004.8 |
| 20260510142651 | 22 | 79 | 0.0 | 0.0 | 0.00 | 0.00 | 0.00 | 42 | 1005.3 |
| 20260510142139 | 22 | 336 | 0.0 | 0.0 | 0.00 | 0.00 | 0.00 | 43 | 1005.3 |
| 20260510141644 | 22 | 38 | 0.0 | 0.0 | 0.00 | 0.00 | 0.00 | 40 | 1005.3 |
| 20260510141145 | 22 | 32 | 0.0 | 0.0 | 0.00 | 0.00 | 0.00 | 40 | 1005.3 |
| 20260510140649 | 22 | 30 | 1.6 | 0.0 | 0.00 | 0.00 | 0.00 | 41 | 1005.3 |
| 20260510140148 | 22 | 13 | 1.6 | 0.0 | 0.00 | 0.00 | 0.00 | 40 | 1005.3 |
| 20260510135634 | 22 | 20 | 1.6 | 0.0 | 0.00 | 0.00 | 0.00 | 42 | 1005.3 |
| 20260510135132 | 22 | 360 | 1.6 | 0.0 | 0.00 | 0.00 | 0.00 | 41 | 1005.3 |
| 20260510134643 | 22 | 105 | 1.6 | 0.0 | 0.00 | 0.00 | 0.00 | 43 | 1005.3 |
| 20260510134150 | 22 | 355 | 1.6 | 0.0 | 0.00 | 0.00 | 0.00 | 44 | 1005.8 |
| 20260510133636 | 21 | 42 | 1.6 | 0.0 | 0.00 | 0.00 | 0.00 | 45 | 1005.8 |
| 20260510133147 | 21 | 360 | 0.0 | 0.0 | 0.00 | 0.00 | 0.00 | 45 | 1005.8 |
| 20260510132636 | 21 | 39 | 0.0 | 0.0 | 0.00 | 0.00 | 0.00 | 46 | 1005.9 |
| 20260510132132 | 21 | 37 | 1.6 | 0.0 | 0.00 | 0.00 | 0.00 | 45 | 1005.9 |
| 20260510131637 | 21 | 73 | 1.6 | 0.0 | 0.00 | 0.00 | 0.00 | 46 | 1005.9 |
| 20260510131138 | 21 | 78 | 3.2 | 0.0 | 0.00 | 0.00 | 0.00 | 46 | 1006.0 |
| 20260510130649 | 21 | 360 | 3.2 | 0.0 | 0.00 | 0.00 | 0.00 | 48 | 1006.0 |
| 20260510130148 | 21 | 80 | 1.6 | 0.0 | 0.00 | 0.00 | 0.00 | 46 | 1006.0 |
| 20260510125633 | 21 | 57 | 1.6 | 0.0 | 0.00 | 0.00 | 0.00 | 46 | 1005.9 |
| 20260510125144 | 21 | 360 | 1.6 | 0.0 | 0.00 | 0.00 | 0.00 | 46 | 1005.9 |
| 20260510124648 | 21 | 34 | 1.6 | 0.0 | 0.00 | 0.00 | 0.00 | 46 | 1005.9 |
| 20260510124137 | 21 | 34 | 1.6 | 0.0 | 0.00 | 0.00 | 0.00 | 47 | 1005.8 |
| 20260510123640 | 21 | 59 | 1.6 | 0.0 | 0.00 | 0.00 | 0.00 | 47 | 1005.8 |
| 20260510123147 | 21 | 51 | 1.6 | 0.0 | 0.00 | 0.00 | 0.00 | 47 | 1005.8 |
| 20260510122632 | 21 | 52 | 1.6 | 0.0 | 0.00 | 0.00 | 0.00 | 46 | 1006.1 |
| 20260510122138 | 21 | 24 | 1.6 | 0.0 | 0.00 | 0.00 | 0.00 | 45 | 1006.1 |
| 20260510121643 | 21 | 360 | 1.6 | 0.0 | 0.00 | 0.00 | 0.00 | 45 | 1006.1 |
| 20260510121137 | 21 | 17 | 0.0 | 0.0 | 0.00 | 0.00 | 0.00 | 44 | 1006.2 |
| 20260510120645 | 22 | 36 | 1.6 | 0.0 | 0.00 | 0.00 | 0.00 | 46 | 1006.2 |
| 20260510120138 | 22 | 15 | 1.6 | 0.0 | 0.00 | 0.00 | 0.00 | 43 | 1006.2 |
| 20260510115645 | 22 | 40 | 3.2 | 0.0 | 0.00 | 0.00 | 0.00 | 44 | 1006.2 |
| 20260510115139 | 22 | 84 | 3.2 | 0.0 | 0.00 | 0.00 | 0.00 | 46 | 1006.2 |
| 20260510114644 | 22 | 34 | 1.6 | 0.0 | 0.00 | 0.00 | 0.00 | 51 | 1006.2 |
| 20260510114138 | 21 | 24 | 1.6 | 0.0 | 0.00 | 0.00 | 0.00 | 49 | 1006.6 |
| 20260510113643 | 21 | 40 | 3.2 | 0.0 | 0.00 | 0.00 | 0.00 | 49 | 1006.6 |
| 20260510113134 | 21 | 63 | 3.2 | 0.0 | 0.00 | 0.00 | 0.00 | 48 | 1006.6 |
| 20260510112642 | 21 | 360 | 3.2 | 0.0 | 0.00 | 0.00 | 0.00 | 50 | 1006.7 |
| 20260510112146 | 21 | 76 | 3.2 | 0.0 | 0.00 | 0.00 | 0.00 | 49 | 1006.7 |
| 20260510111632 | 21 | 121 | 3.2 | 0.0 | 0.00 | 0.00 | 0.00 | 51 | 1006.7 |
| 20260510111134 | 21 | 102 | 3.2 | 0.0 | 0.00 | 0.00 | 0.00 | 51 | 1006.7 |
| 20260510110642 | 21 | 76 | 3.2 | 0.0 | 0.00 | 0.00 | 0.00 | 50 | 1006.7 |
| 20260510110150 | 21 | 41 | 1.6 | 0.0 | 0.00 | 0.00 | 0.00 | 51 | 1006.7 |
| 20260510105636 | 21 | 78 | 3.2 | 0.0 | 0.00 | 0.00 | 0.00 | 50 | 1007.1 |
| 20260510105145 | 21 | 360 | 3.2 | 0.0 | 0.00 | 0.00 | 0.00 | 50 | 1007.1 |
| 20260510104650 | 21 | 82 | 3.2 | 0.0 | 0.00 | 0.00 | 0.00 | 49 | 1007.1 |
| 20260510104148 | 21 | 92 | 1.6 | 0.0 | 0.00 | 0.00 | 0.00 | 53 | 1007.4 |
| 20260510103634 | 20 | 59 | 1.6 | 0.0 | 0.00 | 0.00 | 0.00 | 54 | 1007.4 |
| 20260510103141 | 20 | 27 | 0.0 | 0.0 | 0.00 | 0.00 | 0.00 | 55 | 1007.4 |
| 20260510102649 | 19 | 355 | 0.0 | 0.0 | 0.00 | 0.00 | 0.00 | 54 | 1007.5 |
| 20260510102135 | 19 | 10 | 0.0 | 0.0 | 0.00 | 0.00 | 0.00 | 54 | 1007.5 |
| 20260510101642 | 18 | 79 | 1.6 | 0.0 | 0.00 | 0.00 | 0.00 | 56 | 1007.5 |
| 20260510101147 | 18 | 86 | 1.6 | 0.0 | 0.00 | 0.00 | 0.00 | 55 | 1007.4 |
| 20260510100645 | 19 | 67 | 1.6 | 0.0 | 0.00 | 0.00 | 0.00 | 53 | 1007.4 |
| 20260510100130 | 18 | 72 | 1.6 | 0.0 | 0.00 | 0.00 | 0.00 | 54 | 1007.4 |
| 20260510095653 | 18 | 100 | 1.6 | 0.0 | 0.00 | 0.00 | 0.00 | 55 | 1007.4 |
| 20260510095134 | 18 | 360 | 1.6 | 0.0 | 0.00 | 0.00 | 0.00 | 56 | 1007.4 |
| 20260510094635 | 18 | 69 | 1.6 | 0.0 | 0.00 | 0.00 | 0.00 | 55 | 1007.4 |
| 20260510094144 | 18 | 79 | 1.6 | 0.0 | 0.00 | 0.00 | 0.00 | 56 | 1007.5 |
| 20260510093652 | 18 | 29 | 1.6 | 0.0 | 0.00 | 0.00 | 0.00 | 57 | 1007.5 |
| 20260510093131 | 18 | 37 | 3.2 | 0.0 | 0.00 | 0.00 | 0.00 | 56 | 1007.5 |
| 20260510092638 | 18 | 72 | 3.2 | 0.0 | 0.00 | 0.00 | 0.00 | 55 | 1007.8 |
| 20260510092142 | 18 | 65 | 3.2 | 0.0 | 0.00 | 0.00 | 0.00 | 56 | 1007.8 |
| 20260510091644 | 18 | 62 | 1.6 | 0.0 | 0.00 | 0.00 | 0.00 | 55 | 1007.8 |
| 20260510091144 | 18 | 60 | 1.6 | 0.0 | 0.00 | 0.00 | 0.00 | 56 | 1007.7 |
| 20260510090638 | 18 | 99 | 3.2 | 0.0 | 0.00 | 0.00 | 0.00 | 56 | 1007.7 |
| 20260510090132 | 18 | 61 | 3.2 | 0.0 | 0.00 | 0.00 | 0.00 | 57 | 1007.7 |
| 20260510085648 | 18 | 95 | 3.2 | 0.0 | 0.00 | 0.00 | 0.00 | 57 | 1007.7 |
| 20260510085142 | 18 | 71 | 3.2 | 0.0 | 0.00 | 0.00 | 0.00 | 57 | 1007.7 |
| 20260510084639 | 18 | 360 | 3.2 | 0.0 | 0.00 | 0.00 | 0.00 | 58 | 1007.7 |
| 20260510084147 | 18 | 61 | 3.2 | 0.0 | 0.00 | 0.00 | 0.00 | 59 | 1007.8 |
| 20260510083638 | 18 | 76 | 1.6 | 0.0 | 0.00 | 0.00 | 0.00 | 60 | 1007.8 |
| 20260510083150 | 17 | 360 | 1.6 | 0.0 | 0.00 | 0.00 | 0.00 | 59 | 1007.8 |
| 20260510082653 | 17 | 67 | 0.0 | 0.0 | 0.00 | 0.00 | 0.00 | 62 | 1008.0 |
| 20260510082138 | 17 | 22 | 1.6 | 0.0 | 0.00 | 0.00 | 0.00 | 62 | 1008.0 |
| 20260510081646 | 16 | 360 | 1.6 | 0.0 | 0.00 | 0.00 | 0.00 | 62 | 1008.0 |
| 20260510081145 | 16 | 36 | 1.6 | 0.0 | 0.00 | 0.00 | 0.00 | 63 | 1007.9 |
| 20260510080634 | 16 | 82 | 3.2 | 0.0 | 0.00 | 0.00 | 0.00 | 62 | 1007.9 |
| 20260510080139 | 16 | 67 | 1.6 | 0.0 | 0.00 | 0.00 | 0.00 | 62 | 1007.9 |
| 20260510075642 | 16 | 42 | 1.6 | 0.0 | 0.00 | 0.00 | 0.00 | 63 | 1008.3 |
| 20260510075130 | 16 | 65 | 1.6 | 0.0 | 0.00 | 0.00 | 0.00 | 62 | 1008.3 |
| 20260510074632 | 16 | 67 | 0.0 | 0.0 | 0.00 | 0.00 | 0.00 | 63 | 1008.3 |
| 20260510074138 | 15 | 75 | 1.6 | 0.0 | 0.00 | 0.00 | 0.00 | 65 | 1008.3 |
| 20260510073644 | 15 | 72 | 1.6 | 0.0 | 0.00 | 0.00 | 0.00 | 65 | 1008.3 |
| 20260510073131 | 15 | 42 | 1.6 | 0.0 | 0.00 | 0.00 | 0.00 | 64 | 1008.3 |
| 20260510072645 | 15 | 84 | 3.2 | 0.0 | 0.00 | 0.00 | 0.00 | 65 | 1008.4 |
| 20260510072151 | 15 | 84 | 3.2 | 0.0 | 0.00 | 0.00 | 0.00 | 66 | 1008.4 |
| 20260510071640 | 14 | 68 | 3.2 | 0.0 | 0.00 | 0.00 | 0.00 | 67 | 1008.4 |
| 20260510071147 | 14 | 360 | 1.6 | 0.0 | 0.00 | 0.00 | 0.00 | 67 | 1008.4 |
| 20260510070634 | 14 | 67 | 1.6 | 0.0 | 0.00 | 0.00 | 0.00 | 67 | 1008.4 |
| 20260510070153 | 14 | 78 | 1.6 | 0.0 | 0.00 | 0.00 | 0.00 | 69 | 1008.4 |
| 20260510065632 | 13 | 75 | 3.2 | 0.0 | 0.00 | 0.00 | 0.00 | 69 | 1008.5 |
| 20260510065137 | 13 | 74 | 3.2 | 0.0 | 0.00 | 0.00 | 0.00 | 69 | 1008.5 |
| 20260510064645 | 13 | 53 | 1.6 | 0.0 | 0.00 | 0.00 | 0.00 | 69 | 1008.5 |
| 20260510064133 | 13 | 71 | 1.6 | 0.0 | 0.00 | 0.00 | 0.00 | 70 | 1008.6 |
| 20260510063648 | 13 | 86 | 1.6 | 0.0 | 0.00 | 0.00 | 0.00 | 71 | 1008.6 |
| 20260510063136 | 12 | 75 | 0.0 | 0.0 | 0.00 | 0.00 | 0.00 | 71 | 1008.6 |
| 20260510062641 | 12 | 44 | 0.0 | 0.0 | 0.00 | 0.00 | 0.00 | 71 | 1008.7 |
| 20260510062148 | 12 | 55 | 0.0 | 0.0 | 0.00 | 0.00 | 0.00 | 71 | 1008.7 |
| 20260510061634 | 12 | 28 | 0.0 | 0.0 | 0.00 | 0.00 | 0.00 | 72 | 1008.7 |
| 20260510061136 | 12 | 63 | 0.0 | 0.0 | 0.00 | 0.00 | 0.00 | 72 | 1008.8 |
| 20260510060638 | 12 | 64 | 0.0 | 0.0 | 0.00 | 0.00 | 0.00 | 70 | 1008.8 |
| 20260510060146 | 12 | 360 | 0.0 | 0.0 | 0.00 | 0.00 | 0.00 | 72 | 1008.8 |
| 20260510055650 | 12 | 56 | 0.0 | 0.0 | 0.00 | 0.00 | 0.00 | 71 | 1009.0 |
| 20260510055152 | 12 | 66 | 0.0 | 0.0 | 0.00 | 0.00 | 0.00 | 73 | 1009.0 |
| 20260510054637 | 11 | 55 | 0.0 | 0.0 | 0.00 | 0.00 | 0.00 | 74 | 1009.0 |
| 20260510054144 | 11 | 56 | 0.0 | 0.0 | 0.00 | 0.00 | 0.00 | 74 | 1009.4 |
| 20260510053643 | 10 | 49 | 0.0 | 0.0 | 0.00 | 0.00 | 0.00 | 77 | 1009.4 |
| 20260510053148 | 10 | 87 | 0.0 | 0.0 | 0.00 | 0.00 | 0.00 | 78 | 1009.4 |
| 20260510052640 | 9 | 84 | 0.0 | 0.0 | 0.00 | 0.00 | 0.00 | 80 | 1009.6 |
| 20260510052139 | 8 | 84 | 0.0 | 0.0 | 0.00 | 0.00 | 0.00 | 80 | 1009.6 |
| 20260510051644 | 8 | 84 | 0.0 | 0.0 | 0.00 | 0.00 | 0.00 | 80 | 1009.6 |
| 20260510051132 | 7 | 84 | 0.0 | 0.0 | 0.00 | 0.00 | 0.00 | 81 | 1009.6 |
| 20260510050637 | 7 | 84 | 0.0 | 0.0 | 0.00 | 0.00 | 0.00 | 82 | 1009.6 |
| 20260510050152 | 7 | 84 | 0.0 | 0.0 | 0.00 | 0.00 | 0.00 | 82 | 1009.6 |
| 20260510045651 | 6 | 84 | 0.0 | 0.0 | 0.00 | 0.00 | 0.00 | 83 | 1008.8 |
| 20260510045142 | 6 | 84 | 0.0 | 0.0 | 0.00 | 0.00 | 0.00 | 81 | 1008.8 |
| 20260510044647 | 6 | 84 | 0.0 | 0.0 | 0.00 | 0.00 | 0.00 | 80 | 1008.8 |
| 20260510044146 | 6 | 84 | 0.0 | 0.0 | 0.00 | 0.00 | 0.00 | 79 | 1009.0 |
| 20260510043651 | 6 | 84 | 0.0 | 0.0 | 0.00 | 0.00 | 0.00 | 79 | 1009.0 |
| 20260510043132 | 6 | 84 | 0.0 | 0.0 | 0.00 | 0.00 | 0.00 | 78 | 1009.0 |
| 20260510042633 | 6 | 84 | 0.0 | 0.0 | 0.00 | 0.00 | 0.00 | 78 | 1009.3 |
| 20260510042141 | 6 | 84 | 0.0 | 0.0 | 0.00 | 0.00 | 0.00 | 78 | 1009.3 |
| 20260510041647 | 6 | 84 | 0.0 | 0.0 | 0.00 | 0.00 | 0.00 | 78 | 1009.3 |
| 20260510041136 | 6 | 84 | 0.0 | 0.0 | 0.00 | 0.00 | 0.00 | 78 | 1009.2 |
| 20260510040642 | 6 | 84 | 0.0 | 0.0 | 0.00 | 0.00 | 0.00 | 78 | 1009.2 |
| 20260510040150 | 6 | 89 | 0.0 | 0.0 | 0.00 | 0.00 | 0.00 | 78 | 1009.2 |
| 20260510035641 | 6 | 360 | 0.0 | 0.0 | 0.00 | 0.00 | 0.00 | 77 | 1009.1 |
| 20260510035134 | 6 | 84 | 0.0 | 0.0 | 0.00 | 0.00 | 0.00 | 76 | 1009.1 |
| 20260510034642 | 6 | 80 | 0.0 | 0.0 | 0.00 | 0.00 | 0.00 | 75 | 1009.1 |
| 20260510034141 | 6 | 79 | 0.0 | 0.0 | 0.00 | 0.00 | 0.00 | 75 | 1010.1 |
| 20260510033640 | 6 | 79 | 0.0 | 0.0 | 0.00 | 0.00 | 0.00 | 75 | 1010.1 |
| 20260510033139 | 6 | 79 | 0.0 | 0.0 | 0.00 | 0.00 | 0.00 | 75 | 1010.1 |
| 20260510032650 | 6 | 79 | 0.0 | 0.0 | 0.00 | 0.00 | 0.00 | 75 | 1010.1 |
| 20260510032150 | 6 | 79 | 0.0 | 0.0 | 0.00 | 0.00 | 0.00 | 75 | 1010.1 |
| 20260510031635 | 6 | 79 | 0.0 | 0.0 | 0.00 | 0.00 | 0.00 | 75 | 1010.1 |
| 20260510031135 | 6 | 79 | 0.0 | 0.0 | 0.00 | 0.00 | 0.00 | 75 | 1010.1 |
| 20260510030640 | 7 | 79 | 0.0 | 0.0 | 0.00 | 0.00 | 0.00 | 75 | 1010.1 |
| 20260510030143 | 7 | 79 | 0.0 | 0.0 | 0.00 | 0.00 | 0.00 | 75 | 1010.1 |
| 20260510025633 | 7 | 79 | 0.0 | 0.0 | 0.00 | 0.00 | 0.00 | 75 | 1010.0 |
| 20260510025141 | 7 | 78 | 0.0 | 0.0 | 0.00 | 0.00 | 0.00 | 75 | 1010.0 |
| 20260510024632 | 7 | 78 | 0.0 | 0.0 | 0.00 | 0.00 | 0.00 | 75 | 1010.0 |
| 20260510024137 | 7 | 78 | 0.0 | 0.0 | 0.00 | 0.00 | 0.00 | 75 | 1010.2 |
| 20260510023643 | 7 | 78 | 0.0 | 0.0 | 0.00 | 0.00 | 0.00 | 76 | 1010.2 |
| 20260510023137 | 7 | 78 | 0.0 | 0.0 | 0.00 | 0.00 | 0.00 | 76 | 1010.2 |
| 20260510022639 | 7 | 78 | 0.0 | 0.0 | 0.00 | 0.00 | 0.00 | 75 | 1010.0 |
| 20260510022145 | 7 | 78 | 0.0 | 0.0 | 0.00 | 0.00 | 0.00 | 75 | 1010.0 |
| 20260510021634 | 7 | 78 | 0.0 | 0.0 | 0.00 | 0.00 | 0.00 | 75 | 1010.0 |
| 20260510021135 | 7 | 78 | 0.0 | 0.0 | 0.00 | 0.00 | 0.00 | 75 | 1010.4 |
| 20260510020640 | 7 | 78 | 0.0 | 0.0 | 0.00 | 0.00 | 0.00 | 74 | 1010.4 |
| 20260510020134 | 7 | 78 | 0.0 | 0.0 | 0.00 | 0.00 | 0.00 | 74 | 1010.4 |
| 20260510015636 | 7 | 78 | 0.0 | 0.0 | 0.00 | 0.00 | 0.00 | 75 | 1010.6 |
| 20260510015143 | 7 | 78 | 0.0 | 0.0 | 0.00 | 0.00 | 0.00 | 75 | 1010.6 |
| 20260510014651 | 7 | 78 | 0.0 | 0.0 | 0.00 | 0.00 | 0.00 | 74 | 1010.6 |
| 20260510014154 | 7 | 78 | 0.0 | 0.0 | 0.00 | 0.00 | 0.00 | 74 | 1010.6 |
| 20260510013638 | 7 | 78 | 0.0 | 0.0 | 0.00 | 0.00 | 0.00 | 74 | 1010.6 |
| 20260510013145 | 7 | 78 | 0.0 | 0.0 | 0.00 | 0.00 | 0.00 | 74 | 1010.6 |
| 20260510012633 | 8 | 78 | 0.0 | 0.0 | 0.00 | 0.00 | 0.00 | 74 | 1010.5 |
| 20260510012140 | 8 | 78 | 0.0 | 0.0 | 0.00 | 0.00 | 0.00 | 74 | 1010.5 |
| 20260510011638 | 8 | 78 | 0.0 | 0.0 | 0.00 | 0.00 | 0.00 | 74 | 1010.5 |
| 20260510011150 | 8 | 78 | 0.0 | 0.0 | 0.00 | 0.00 | 0.00 | 74 | 1010.5 |
| 20260510010652 | 8 | 360 | 0.0 | 0.0 | 0.00 | 0.00 | 0.00 | 74 | 1010.5 |
| 20260510010138 | 8 | 79 | 0.0 | 0.0 | 0.00 | 0.00 | 0.00 | 74 | 1010.5 |
| 20260510005646 | 8 | 78 | 0.0 | 0.0 | 0.00 | 0.00 | 0.00 | 73 | 1010.6 |
| 20260510005154 | 8 | 78 | 0.0 | 0.0 | 0.00 | 0.00 | 0.00 | 73 | 1010.6 |
| 20260510004638 | 8 | 78 | 0.0 | 0.0 | 0.00 | 0.00 | 0.00 | 72 | 1010.6 |
| 20260510004140 | 8 | 78 | 0.0 | 0.0 | 0.00 | 0.00 | 0.00 | 72 | 1010.4 |
| 20260510003631 | 8 | 78 | 0.0 | 0.0 | 0.00 | 0.00 | 0.00 | 71 | 1010.4 |
| 20260510003137 | 8 | 78 | 0.0 | 0.0 | 0.00 | 0.00 | 0.00 | 70 | 1010.4 |
| 20260510002637 | 8 | 78 | 0.0 | 0.0 | 0.00 | 0.00 | 0.00 | 70 | 1010.8 |
| 20260510002141 | 8 | 78 | 0.0 | 0.0 | 0.00 | 0.00 | 0.00 | 70 | 1010.8 |
| 20260510001646 | 8 | 84 | 0.0 | 0.0 | 0.00 | 0.00 | 0.00 | 69 | 1010.8 |
| 20260510001145 | 9 | 78 | 0.0 | 0.0 | 0.00 | 0.00 | 0.00 | 69 | 1010.7 |
| 20260510000631 | 9 | 78 | 0.0 | 0.0 | 0.00 | 0.00 | 0.00 | 69 | 1010.7 |
| 20260510000150 | 9 | 78 | 0.0 | 0.0 | 0.00 | 0.00 | 0.00 | 69 | 1010.7 |
| 20260509235638 | 9 | 78 | 0.0 | 0.0 | 0.00 | 0.00 | 0.00 | 69 | 1010.7 |
| 20260509235143 | 9 | 78 | 0.0 | 0.0 | 0.00 | 0.00 | 0.00 | 68 | 1010.7 |
| 20260509234632 | 10 | 78 | 0.0 | 0.0 | 0.00 | 0.00 | 0.00 | 68 | 1010.7 |
| 20260509234138 | 10 | 78 | 0.0 | 0.0 | 0.00 | 0.00 | 0.00 | 68 | 1010.9 |
| 20260509233641 | 10 | 78 | 0.0 | 0.0 | 0.00 | 0.00 | 0.00 | 68 | 1010.9 |
| 20260509233152 | 10 | 78 | 0.0 | 0.0 | 0.00 | 0.00 | 0.00 | 67 | 1010.9 |
| 20260509232654 | 10 | 78 | 0.0 | 0.0 | 0.00 | 0.00 | 0.00 | 67 | 1011.6 |
| 20260509232139 | 10 | 80 | 0.0 | 0.0 | 0.00 | 0.00 | 0.00 | 67 | 1011.6 |
| 20260509231647 | 10 | 78 | 0.0 | 0.0 | 0.00 | 0.00 | 0.00 | 67 | 1011.6 |
| 20260509231139 | 10 | 78 | 0.0 | 0.0 | 0.00 | 0.00 | 0.00 | 67 | 1011.7 |
| 20260509230647 | 11 | 360 | 0.0 | 0.0 | 0.00 | 0.00 | 0.00 | 67 | 1011.7 |
| 20260509230149 | 11 | 78 | 0.0 | 0.0 | 0.00 | 0.00 | 0.00 | 67 | 1011.7 |
| 20260509225649 | 11 | 360 | 0.0 | 0.0 | 0.00 | 0.00 | 0.00 | 66 | 1011.8 |
| 20260509225143 | 11 | 78 | 0.0 | 0.0 | 0.00 | 0.00 | 0.00 | 66 | 1011.8 |
| 20260509224648 | 11 | 78 | 0.0 | 0.0 | 0.00 | 0.00 | 0.00 | 65 | 1011.8 |
| 20260509224137 | 11 | 78 | 0.0 | 0.0 | 0.00 | 0.00 | 0.00 | 64 | 1011.9 |
| 20260509223643 | 12 | 79 | 0.0 | 0.0 | 0.00 | 0.00 | 0.00 | 64 | 1011.9 |
| 20260509223151 | 12 | 360 | 0.0 | 0.0 | 0.00 | 0.00 | 0.00 | 64 | 1011.9 |
| 20260509222650 | 12 | 78 | 0.0 | 0.0 | 0.00 | 0.00 | 0.00 | 63 | 1012.6 |
| 20260509222139 | 12 | 78 | 0.0 | 0.0 | 0.00 | 0.00 | 0.00 | 63 | 1012.6 |
| 20260509221638 | 12 | 78 | 0.0 | 0.0 | 0.00 | 0.00 | 0.00 | 62 | 1012.6 |
| 20260509221140 | 12 | 78 | 0.0 | 0.0 | 0.00 | 0.00 | 0.00 | 62 | 1011.1 |
| 20260509220649 | 12 | 78 | 0.0 | 0.0 | 0.00 | 0.00 | 0.00 | 62 | 1011.1 |
| 20260509220154 | 12 | 78 | 0.0 | 0.0 | 0.00 | 0.00 | 0.00 | 62 | 1011.1 |
| 20260509215640 | 13 | 360 | 0.0 | 0.0 | 0.00 | 0.00 | 0.00 | 61 | 1011.0 |
| 20260509215141 | 13 | 78 | 0.0 | 0.0 | 0.00 | 0.00 | 0.00 | 61 | 1011.0 |
| 20260509214636 | 13 | 79 | 0.0 | 0.0 | 0.00 | 0.00 | 0.00 | 61 | 1011.0 |
| 20260509214150 | 13 | 79 | 0.0 | 0.0 | 0.00 | 0.00 | 0.00 | 61 | 1011.0 |
| 20260509213644 | 13 | 80 | 0.0 | 0.0 | 0.00 | 0.00 | 0.00 | 62 | 1011.0 |
| 20260509213152 | 13 | 85 | 0.0 | 0.0 | 0.00 | 0.00 | 0.00 | 62 | 1011.0 |
| 20260509212635 | 13 | 91 | 0.0 | 0.0 | 0.00 | 0.00 | 0.00 | 62 | 1011.0 |
| 20260509212144 | 13 | 91 | 0.0 | 0.0 | 0.00 | 0.00 | 0.00 | 61 | 1011.0 |
| 20260509211632 | 13 | 101 | 0.0 | 0.0 | 0.00 | 0.00 | 0.00 | 61 | 1011.0 |
| 20260509211136 | 13 | 82 | 1.6 | 0.0 | 0.00 | 0.00 | 0.00 | 61 | 1011.4 |
| 20260509210639 | 13 | 94 | 1.6 | 0.0 | 0.00 | 0.00 | 0.00 | 61 | 1011.4 |
| 20260509210142 | 13 | 107 | 0.0 | 0.0 | 0.00 | 0.00 | 0.00 | 61 | 1011.4 |
| 20260509205647 | 14 | 84 | 0.0 | 0.0 | 0.00 | 0.00 | 0.00 | 61 | 1011.3 |
| 20260509205149 | 14 | 86 | 1.6 | 0.0 | 0.00 | 0.00 | 0.00 | 61 | 1011.3 |
| 20260509204635 | 14 | 86 | 1.6 | 0.0 | 0.00 | 0.00 | 0.00 | 60 | 1011.3 |
| 20260509204144 | 14 | 88 | 1.6 | 0.0 | 0.00 | 0.00 | 0.00 | 60 | 1011.4 |
| 20260509203650 | 14 | 78 | 1.6 | 0.0 | 0.00 | 0.00 | 0.00 | 60 | 1011.4 |
| 20260509203152 | 14 | 88 | 1.6 | 0.0 | 0.00 | 0.00 | 0.00 | 60 | 1011.4 |
| 20260509202652 | 14 | 88 | 0.0 | 0.0 | 0.00 | 0.00 | 0.00 | 60 | 1012.4 |
| 20260509202136 | 15 | 109 | 1.6 | 0.0 | 0.00 | 0.00 | 0.00 | 60 | 1012.4 |
| 20260509201642 | 15 | 94 | 1.6 | 0.0 | 0.00 | 0.00 | 0.00 | 60 | 1012.4 |
| 20260509201145 | 15 | 86 | 1.6 | 0.0 | 0.00 | 0.00 | 0.00 | 60 | 1011.8 |
| 20260509200654 | 15 | 84 | 1.6 | 0.0 | 0.00 | 0.00 | 0.00 | 59 | 1011.8 |
| 20260509200136 | 15 | 90 | 1.6 | 0.0 | 0.00 | 0.00 | 0.00 | 59 | 1011.8 |
| 20260509195642 | 15 | 88 | 1.6 | 0.0 | 0.00 | 0.00 | 0.00 | 59 | 1011.7 |
| 20260509195135 | 15 | 84 | 0.0 | 0.0 | 0.00 | 0.00 | 0.00 | 59 | 1011.7 |
| 20260509194640 | 15 | 360 | 0.0 | 0.0 | 0.00 | 0.00 | 0.00 | 58 | 1011.7 |
| 20260509194135 | 15 | 71 | 0.0 | 0.0 | 0.00 | 0.00 | 0.00 | 57 | 1011.5 |
| 20260509193640 | 15 | 73 | 0.0 | 0.0 | 0.00 | 0.00 | 0.00 | 57 | 1011.5 |
| 20260509193151 | 16 | 73 | 0.0 | 0.0 | 0.00 | 0.00 | 0.00 | 56 | 1011.5 |
| 20260509192638 | 16 | 360 | 0.0 | 0.0 | 0.00 | 0.00 | 0.00 | 56 | 1011.2 |
| 20260509192141 | 16 | 75 | 0.0 | 0.0 | 0.00 | 0.00 | 0.00 | 56 | 1011.2 |
| 20260509191145 | 16 | 86 | 0.0 | 0.0 | 0.00 | 0.00 | 0.00 | 55 | 1011.4 |
| 20260509190647 | 16 | 112 | 0.0 | 0.0 | 0.00 | 0.00 | 0.00 | 55 | 1011.4 |
| 20260509190150 | 17 | 79 | 0.0 | 0.0 | 0.00 | 0.00 | 0.00 | 54 | 1011.4 |
| 20260509185642 | 17 | 69 | 0.0 | 0.0 | 0.00 | 0.00 | 0.00 | 54 | 1011.3 |
| 20260509185144 | 17 | 70 | 0.0 | 0.0 | 0.00 | 0.00 | 0.00 | 53 | 1011.3 |
| 20260509184649 | 17 | 70 | 0.0 | 0.0 | 0.00 | 0.00 | 0.00 | 53 | 1011.3 |
| 20260509184140 | 17 | 69 | 0.0 | 0.0 | 0.00 | 0.00 | 0.00 | 53 | 1011.2 |
| 20260509183649 | 17 | 69 | 0.0 | 0.0 | 0.00 | 0.00 | 0.00 | 52 | 1011.2 |
| 20260509183147 | 17 | 66 | 0.0 | 0.0 | 0.00 | 0.00 | 0.00 | 52 | 1011.2 |
| 20260509182648 | 18 | 69 | 0.0 | 0.0 | 0.00 | 0.00 | 0.00 | 51 | 1011.2 |
| 20260509182143 | 18 | 60 | 0.0 | 0.0 | 0.00 | 0.00 | 0.00 | 51 | 1011.2 |
| 20260509181638 | 18 | 63 | 0.0 | 0.0 | 0.00 | 0.00 | 0.00 | 51 | 1011.2 |
| 20260509181132 | 18 | 72 | 0.0 | 0.0 | 0.00 | 0.00 | 0.00 | 50 | 1011.4 |
| 20260509180645 | 18 | 360 | 1.6 | 0.0 | 0.00 | 0.00 | 0.00 | 51 | 1011.4 |
| 20260509180137 | 18 | 75 | 1.6 | 0.0 | 0.00 | 0.00 | 0.00 | 50 | 1011.4 |
| 20260509175641 | 18 | 96 | 1.6 | 0.0 | 0.00 | 0.00 | 0.00 | 51 | 1011.5 |
| 20260509175151 | 18 | 76 | 1.6 | 0.0 | 0.00 | 0.00 | 0.00 | 50 | 1011.5 |
| 20260509174653 | 18 | 78 | 1.6 | 0.0 | 0.00 | 0.00 | 0.00 | 50 | 1011.5 |
| 20260509174136 | 18 | 64 | 1.6 | 0.0 | 0.00 | 0.00 | 0.00 | 49 | 1011.3 |
| 20260509173640 | 18 | 69 | 0.0 | 0.0 | 0.00 | 0.00 | 0.00 | 48 | 1011.3 |
| 20260509173150 | 19 | 76 | 1.6 | 0.0 | 0.00 | 0.00 | 0.00 | 48 | 1011.3 |
| 20260509172639 | 19 | 87 | 1.6 | 0.0 | 0.00 | 0.00 | 0.00 | 48 | 1011.3 |
| 20260509172154 | 19 | 94 | 3.2 | 0.0 | 0.00 | 0.00 | 0.00 | 48 | 1011.3 |
| 20260509171640 | 20 | 67 | 3.2 | 0.0 | 0.00 | 0.00 | 0.00 | 46 | 1011.3 |
| 20260509171151 | 20 | 82 | 4.8 | 0.0 | 0.00 | 0.00 | 0.00 | 46 | 1011.4 |
| 20260509170637 | 20 | 99 | 4.8 | 0.0 | 0.00 | 0.00 | 0.00 | 46 | 1011.4 |
| 20260509170138 | 20 | 74 | 3.2 | 0.0 | 0.00 | 0.00 | 0.00 | 45 | 1011.4 |
| 20260509165646 | 20 | 98 | 3.2 | 0.0 | 0.00 | 0.00 | 0.00 | 45 | 1011.5 |
| 20260509165149 | 20 | 360 | 4.8 | 0.0 | 0.00 | 0.00 | 0.00 | 45 | 1011.5 |
| 20260509164648 | 20 | 72 | 4.8 | 0.0 | 0.00 | 0.00 | 0.00 | 45 | 1011.5 |
| 20260509164134 | 20 | 69 | 3.2 | 0.0 | 0.00 | 0.00 | 0.00 | 46 | 1011.5 |
| 20260509163638 | 20 | 65 | 3.2 | 0.0 | 0.00 | 0.00 | 0.00 | 46 | 1011.5 |
| 20260509163146 | 20 | 44 | 3.2 | 0.0 | 0.00 | 0.00 | 0.00 | 45 | 1011.5 |
| 20260509162647 | 20 | 88 | 3.2 | 0.0 | 0.00 | 0.00 | 0.00 | 45 | 1011.8 |
| 20260509162147 | 20 | 76 | 3.2 | 0.0 | 0.00 | 0.00 | 0.00 | 45 | 1011.8 |
| 20260509161650 | 20 | 360 | 1.6 | 0.0 | 0.00 | 0.00 | 0.00 | 44 | 1011.8 |
| 20260509161143 | 20 | 82 | 0.0 | 0.0 | 0.00 | 0.00 | 0.00 | 44 | 1011.9 |
| 20260509160650 | 20 | 76 | 0.0 | 0.0 | 0.00 | 0.00 | 0.00 | 45 | 1011.9 |
| 20260509160151 | 20 | 83 | 0.0 | 0.0 | 0.00 | 0.00 | 0.00 | 44 | 1011.9 |
| 20260509155638 | 20 | 15 | 0.0 | 0.0 | 0.00 | 0.00 | 0.00 | 44 | 1011.8 |
| 20260509155145 | 20 | 29 | 0.0 | 0.0 | 0.00 | 0.00 | 0.00 | 43 | 1011.8 |
| 20260509154643 | 21 | 29 | 0.0 | 0.0 | 0.00 | 0.00 | 0.00 | 42 | 1011.8 |
| 20260509154144 | 21 | 55 | 0.0 | 0.0 | 0.00 | 0.00 | 0.00 | 41 | 1011.9 |
| 20260509153652 | 21 | 87 | 1.6 | 0.0 | 0.00 | 0.00 | 0.00 | 42 | 1011.9 |
| 20260509153138 | 21 | 87 | 1.6 | 0.0 | 0.00 | 0.00 | 0.00 | 42 | 1011.9 |
| 20260509152644 | 22 | 360 | 3.2 | 0.0 | 0.00 | 0.00 | 0.00 | 41 | 1011.8 |